Golden Triangle, MS

2:41 AM CST on November 21, 2017 (GMT -0600)
Golden Triangle Regional

Weather History for KGTR - March, 2013

Change the Weather History Date:

Tuesday, March 19, 2013

  Actual Average Record
Temperature  
Mean Temperature 54 °F -  
Max Temperature 66 °F 65 °F 84 °F (2011)
Min Temperature 41 °F 42 °F 41 °F (2013)
Degree Days  
Heating Degree Days 12    
Growing Degree Days 4 (Base 50)    
Moisture  
Dew Point 35 °F    
Average Humidity 60    
Maximum Humidity 87    
Minimum Humidity 28    
Precipitation  
Precipitation 0.00 in - - ()
Sea Level Pressure  
Sea Level Pressure 30.08 in    
Wind  
Wind Speed 8 mph (NNE)    
Max Wind Speed 18 mph    
Max Gust Speed 18 mph    
Visibility 10 miles    
Events      
Averages and records for this station are not official NWS values.
T = Trace of Precipitation, MM = Missing Value Source: NWS Daily Summary

Daily Weather History Graph

Daily Weather History Graph

Search for Another Location

Airport or City:

Trip Planner

Search our weather history database for the weather conditions in past years. The results will help you decide how hot, cold, wet, or windy it might be!

Date:

Astronomy

Mar. 19, 2013 Rise Set
Actual Time 6:59 AM CDT 7:05 PM CDT
Civil Twilight 6:34 AM CDT 7:30 PM CDT
Nautical Twilight 6:05 AM CDT 7:59 PM CDT
Astronomical Twilight 5:36 AM CDT 8:28 PM CDT
Moon 12:05 PM CDT (3/19) 1:36 AM CDT (3/19)
Length of Visible Light 12h 55m
Length of Day
12h 06m
Waxing Crescent, 50% of the Moon is Illuminated
Mar 19
Waxing Crescent
Mar 19
First Quarter
Mar 27
Full
Apr 2
Last Quarter
Apr 10
New

Hourly Weather History & Observations

Time (CDT) Temp. Windchill Dew Point Humidity Pressure Visibility Wind Dir Wind Speed Gust Speed Precip Events Conditions
12:35 AM 48.2 °F - 42.8 °F 82% 30.02 in 10.0 mi North 10.4 mph - N/A   Clear
12:55 AM 48.2 °F - 41.0 °F 76% 30.03 in 10.0 mi North 6.9 mph - N/A   Clear
1:15 AM 48.2 °F - 41.0 °F 76% 30.04 in 10.0 mi North 6.9 mph - N/A   Clear
1:35 AM 46.4 °F 42.9 °F 41.0 °F 81% 30.04 in 10.0 mi North 6.9 mph - N/A   Clear
1:55 AM 46.4 °F 42.9 °F 39.2 °F 76% 30.05 in 10.0 mi North 6.9 mph - N/A   Clear
2:15 AM 46.4 °F 43.5 °F 39.2 °F 76% 30.05 in 10.0 mi North 5.8 mph - N/A   Clear
2:35 AM 44.6 °F 42.2 °F 39.2 °F 81% 30.06 in 10.0 mi North 4.6 mph - N/A   Clear
2:55 AM 44.6 °F 43.1 °F 39.2 °F 81% 30.07 in 10.0 mi NNW 3.5 mph - N/A   Clear
3:15 AM 44.6 °F 40.7 °F 39.2 °F 81% 30.07 in 10.0 mi North 6.9 mph - N/A   Clear
3:35 AM 44.6 °F 40.2 °F 39.2 °F 81% 30.07 in 10.0 mi North 8.1 mph - N/A   Clear
3:55 AM 44.6 °F 40.7 °F 39.2 °F 81% 30.08 in 10.0 mi North 6.9 mph - N/A   Clear
4:15 AM 42.8 °F 38.6 °F 37.4 °F 81% 30.07 in 10.0 mi North 6.9 mph - N/A   Clear
4:35 AM 42.8 °F 39.3 °F 37.4 °F 81% 30.07 in 10.0 mi NNE 5.8 mph - N/A   Clear
4:55 AM 42.8 °F 40.1 °F 37.4 °F 81% 30.08 in 10.0 mi North 4.6 mph - N/A   Clear
5:15 AM 42.8 °F 39.3 °F 37.4 °F 81% 30.07 in 10.0 mi NNE 5.8 mph - N/A   Clear
5:35 AM 42.8 °F 40.1 °F 37.4 °F 81% 30.07 in 10.0 mi NE 4.6 mph - N/A   Clear
5:45 AM 42.8 °F - 37.4 °F 81% 30.06 in 10.0 mi Calm Calm - N/A   Clear
6:45 AM 42.8 °F 41.1 °F 37.4 °F 81% 30.06 in 10.0 mi ENE 3.5 mph - N/A   Clear
7:45 AM 41.0 °F 38.0 °F 37.4 °F 87% 30.09 in 10.0 mi ENE 4.6 mph - N/A   Clear
8:45 AM 46.4 °F 43.5 °F 41.0 °F 81% 30.11 in 10.0 mi ENE 5.8 mph - N/A   Clear
9:45 AM 51.8 °F - 37.4 °F 58% 30.13 in 10.0 mi ENE 10.4 mph - N/A   Clear
10:45 AM 55.4 °F - 35.6 °F 47% 30.15 in 10.0 mi ENE 11.5 mph - N/A   Clear
11:50 AM 60.8 °F - 35.6 °F 39% 30.16 in 10.0 mi North 10.4 mph - N/A   Clear
1:50 PM 64.4 °F - 33.8 °F 32% 30.13 in 10.0 mi NE 11.5 mph - N/A   Clear
2:50 PM 66.2 °F - 35.6 °F 32% 30.10 in 10.0 mi NNE 18.4 mph - N/A   Clear
3:50 PM 66.2 °F - 33.8 °F 30% 30.07 in 10.0 mi NNE 11.5 mph 18.4 mph N/A   Clear
4:45 PM 64.4 °F - 30.2 °F 28% 30.04 in 10.0 mi NE 13.8 mph - N/A   Clear
5:45 PM 64.4 °F - 30.2 °F 28% 30.06 in 10.0 mi NE 6.9 mph - N/A   Clear
7:45 PM 55.4 °F - 33.8 °F 44% 30.09 in 10.0 mi North 8.1 mph - N/A   Clear
8:15 PM 55.4 °F - 30.2 °F 38% 30.10 in 10.0 mi NNE 9.2 mph - N/A   Clear
8:35 PM 53.6 °F - 30.2 °F 41% 30.10 in 10.0 mi NNE 10.4 mph - N/A   Clear
8:55 PM 53.6 °F - 28.4 °F 38% 30.10 in 10.0 mi NNE 9.2 mph - N/A   Clear
9:15 PM 53.6 °F - 30.2 °F 41% 30.10 in 10.0 mi NNE 10.4 mph - N/A   Clear
9:35 PM 53.6 °F - 30.2 °F 41% 30.10 in 10.0 mi NNE 9.2 mph - N/A   Clear
9:55 PM 53.6 °F - 28.4 °F 38% 30.10 in 10.0 mi NNE 8.1 mph - N/A   Clear
10:15 PM 53.6 °F - 28.4 °F 38% 30.10 in 10.0 mi NE 6.9 mph - N/A   Clear
10:35 PM 53.6 °F - 28.4 °F 38% 30.11 in 10.0 mi North 6.9 mph - N/A   Clear
10:55 PM 51.8 °F - 30.2 °F 44% 30.11 in 10.0 mi NNE 6.9 mph - N/A   Partly Cloudy
11:15 PM 51.8 °F - 32.0 °F 47% 30.12 in 10.0 mi North 6.9 mph - N/A   Mostly Cloudy
11:35 PM 51.8 °F - 30.2 °F 44% 30.12 in 10.0 mi North 9.2 mph - N/A   Mostly Cloudy
11:55 PM 50.0 °F - 30.2 °F 47% 30.13 in 10.0 mi North 8.1 mph - N/A   Mostly Cloudy